New Philadelphia, OH

10:38 PM EST on November 17, 2019 (GMT -0500)
Clever

Weather History for KPHD - October, 2019

Change the Weather History Date:

Monday, October 21, 2019

  Actual Average Record
Temperature  
Mean Temperature 60 °F 51 °F  
Max Temperature 75 °F 63 °F 82 °F (2007)
Min Temperature 46 °F 39 °F 23 °F (1972)
Degree Days  
Heating Degree Days 4 14  
Month to date heating degree days 167 235  
Since 1 July heating degree days 176 341  
Cooling Degree Days 0 0  
Month to date cooling degree days 38 9  
Year to date cooling degree days 962 697  
Growing Degree Days 10 (Base 50)    
Moisture  
Dew Point 51 °F    
Average Humidity 74    
Maximum Humidity 94    
Minimum Humidity 41    
Precipitation  
Precipitation T in 0.08 in 0.98 in (2016)
Month to date precipitation 2.07 1.86  
Year to date precipitation 35.23 32.07  
Sea Level Pressure  
Sea Level Pressure 29.93 in    
Wind  
Wind Speed 5 mph ()    
Max Wind Speed 21 mph    
Max Gust Speed 24 mph    
Visibility 9.0 miles    
Events      
T = Trace of Precipitation, MM = Missing Value Source: Averaged Metar Reports

Daily Weather History Graph

Daily Weather History Graph

Search for Another Location

Airport or City:

Astronomy

Oct. 21, 2019 Rise Set
Actual Time 7:42 AM EDT 6:37 PM EDT
Civil Twilight 7:15 AM EDT 7:04 PM EDT
Nautical Twilight 6:43 AM EDT 7:36 PM EDT
Astronomical Twilight 6:11 AM EDT 8:08 PM EDT
Moon No Moon Rise 3:00 PM EDT (10/21)
Length of Visible Light 11h 49m
Length of Day
10h 54m
Waning Gibbous, 48% of the Moon is Illuminated
Oct 21
Waning Gibbous
Oct 27
New
Nov 4
First Quarter
Nov 12
Full
Nov 19
Last Quarter

Hourly Weather History & Observations

Time (EDT) Temp. Dew Point Humidity Pressure Visibility Wind Dir Wind Speed Gust Speed Precip Events Conditions
12:53 AM 55.9 °F 52.0 °F 87% 29.99 in 10.0 mi SE 3.5 mph - N/A   Overcast
1:53 AM 55.9 °F 51.1 °F 84% 29.99 in 10.0 mi ESE 4.6 mph - N/A   Overcast
2:53 AM 55.9 °F 52.0 °F 87% 29.99 in 10.0 mi ESE 4.6 mph - N/A   Overcast
3:53 AM 53.1 °F 50.0 °F 89% 29.98 in 10.0 mi SE 3.5 mph - N/A   Partly Cloudy
5:53 AM 50.0 °F 48.0 °F 93% 29.99 in 10.0 mi ESE 3.5 mph - N/A   Clear
6:53 AM 48.9 °F 46.0 °F 90% 30.01 in 10.0 mi Calm Calm - N/A   Clear
7:53 AM 46.9 °F 45.0 °F 93% 30.01 in 8.0 mi SE 3.5 mph - N/A   Clear
8:53 AM 52.0 °F 50.0 °F 93% 30.01 in 10.0 mi SE 4.6 mph - N/A   Clear
9:32 AM 53.1 °F 51.1 °F 93% 30.00 in 7.0 mi SSE 6.9 mph - N/A   Scattered Clouds
9:43 AM 53.1 °F 51.1 °F 93% 30.00 in 3.0 mi SSE 6.9 mph - N/A   Mostly Cloudy
9:51 AM 53.6 °F 51.8 °F 94% 29.99 in 2.5 mi SSE 5.8 mph - N/A   Overcast
9:53 AM 53.1 °F 51.1 °F 93% 30.00 in 3.0 mi SSE 5.8 mph - N/A   Overcast
10:50 AM 57.2 °F 53.6 °F 88% 29.99 in 10.0 mi SSE 8.1 mph - N/A   Mostly Cloudy
10:53 AM 57.0 °F 53.1 °F 87% 29.99 in 10.0 mi ESE 11.5 mph - N/A   Mostly Cloudy
11:01 AM 57.0 °F 52.0 °F 83% 29.98 in 10.0 mi SE 11.5 mph - N/A   Scattered Clouds
11:53 AM 63.0 °F 52.0 °F 67% 29.96 in 10.0 mi ESE 9.2 mph - N/A   Clear
12:53 PM 66.9 °F 48.9 °F 52% 29.91 in 10.0 mi SE 15.0 mph 24.2 mph N/A   Clear
1:53 PM 70.0 °F 52.0 °F 53% 29.87 in 10.0 mi ESE 12.7 mph - N/A   Clear
2:53 PM 73.0 °F 51.1 °F 46% 29.83 in 10.0 mi SE 13.8 mph 19.6 mph N/A   Clear
3:53 PM 75.0 °F 50.0 °F 41% 29.81 in 10.0 mi SE 12.7 mph 20.7 mph N/A   Scattered Clouds
4:53 PM 73.0 °F 51.1 °F 46% 29.83 in 10.0 mi South 5.8 mph - N/A   Overcast
5:53 PM 71.1 °F 51.1 °F 49% 29.82 in 10.0 mi SSE 4.6 mph - N/A   Overcast
6:53 PM 69.1 °F 51.1 °F 53% 29.81 in 10.0 mi SE 4.6 mph - N/A   Clear
7:53 PM 66.9 °F 52.0 °F 59% 29.80 in 10.0 mi ESE 8.1 mph - N/A   Scattered Clouds
8:53 PM 68.0 °F 53.1 °F 59% 29.78 in 10.0 mi SE 6.9 mph - N/A   Partly Cloudy
9:53 PM 70.0 °F 53.1 °F 55% 29.78 in 10.0 mi SSE 5.8 mph - N/A   Overcast